Tracking 19817 objects as of 19-Aug-2019
HD Live streaming from Space Station
objects crossing your sky now

FENGYUN 1C DEB

Track FENGYUN 1C DEB now!
10-day predictions


NORAD ID: 30508
Int'l Code: 1999-025AHW
Perigee: 618.3 km
Apogee: 1,004.5 km
Inclination: 99.3 °
Period: 101.0 minutes
Semi major axis: 7182 km
RCS: 0.0117 m2 (small)
Launch date: May 10, 1999
Source: People's Republic of China (PRC)
Launch site: Taiyaun Space Center, China (TSC)

Note: This is SATELLITE DEBRIS
aabbcc
Your satellite tracking list
Your tracking list is empty




NASA's NSSDC Master Catalog

Two Line Element Set (TLE):
1 30508U 99025AHW 19230.95320071 +.00000864 +00000-0 +26300-3 0  9995
2 30508 099.2535 050.9720 0268795 358.6198 159.0383 14.26259237647266
Source of the keplerian elements: AFSPC